Wind_Speed
51 50 48 47 47 46 44 42 41 41 39 37 36 35 34 33 32 30 29 28 28 28 27 26 25 25 25 26 26 27 28 29 30 31 33 34 34 35 36 37 37 38 39
54 53 51 51 49 49 47 45 44 43 42 40 39 38 37 35 33 32 31 30 29 28 28 27 27 27 27 27 27 28 29 30 31 32 33 35 35 36 37 37 38 39 40
58 57 54 54 53 52 50 48 46 45 44 42 41 40 39 37 35 33 32 31 30 29 29 28 28 28 28 28 28 29 30 31 32 33 34 35 36 37 37 38 39 40 41
61 60 57 57 56 54 53 51 49 47 46 44 43 42 40 39 37 35 33 32 31 30 30 29 29 29 29 29 29 30 31 32 33 34 35 36 36 37 38 39 40 41 42
63 63 60 59 59 57 55 54 52 50 48 46 44 43 42 41 38 36 34 33 32 31 31 30 30 30 30 30 30 31 32 33 34 35 35 36 37 38 38 39 41 42 43
64 64 63 62 61 60 58 57 55 51 50 48 46 44 43 42 40 38 36 35 33 32 31 31 30 30 30 31 32 33 33 34 35 35 36 37 37 38 39 40 42 43 44
63 63 64 64 63 62 60 58 57 54 53 51 48 45 44 43 42 40 37 36 34 33 32 31 31 31 31 32 33 33 34 35 35 36 37 37 38 39 40 42 43 43 44
62 63 63 64 63 63 61 60 59 57 55 53 50 47 45 44 43 40 39 37 35 33 33 33 32 32 32 33 33 34 35 35 36 37 37 38 39 40 41 42 43 44 45
61 61 60 62 63 63 62 61 60 58 56 53 51 48 45 44 42 41 40 38 35 34 34 34 33 33 33 33 34 34 35 36 37 38 38 39 40 41 42 43 44 45 46
59 60 60 60 61 62 61 59 60 60 58 55 52 49 46 44 43 42 41 39 36 35 34 34 34 34 34 34 35 35 36 36 37 38 38 39 40 41 42 43 44 45 47
57 57 58 59 59 60 59 58 59 59 57 56 53 50 47 45 44 43 42 40 38 36 35 35 34 34 36 35 35 36 37 37 38 38 38 39 41 41 42 43 44 46 48
56 56 57 58 58 58 58 58 59 58 57 55 54 52 48 45 44 44 42 40 39 38 37 36 35 35 36 36 36 36 36 37 37 38 39 40 40 41 42 43 45 47 48
55 55 56 56 57 57 57 57 59 58 57 55 54 52 49 46 43 44 43 41 40 39 38 37 36 36 37 37 37 36 36 36 37 38 39 40 41 41 42 44 45 47 49
54 54 55 55 55 56 56 57 59 58 57 55 54 52 50 48 44 45 44 42 41 39 38 38 37 37 37 36 37 36 36 36 37 39 39 40 41 41 43 44 46 48 49
54 53 53 52 54 56 56 56 57 57 56 55 53 52 52 49 46 45 45 43 41 39 39 37 37 37 36 35 36 36 36 37 37 38 39 40 41 42 43 45 46 48 50
52 52 52 51 52 55 55 55 56 56 56 55 53 52 52 50 47 45 45 42 41 40 38 37 37 36 35 35 35 35 36 37 38 39 39 40 41 43 43 45 47 49 51
51 50 49 49 52 54 53 52 55 55 55 54 53 52 52 50 46 45 44 42 41 40 38 37 36 36 35 35 34 34 36 37 38 38 39 40 42 42 44 46 48 50 53
47 48 48 48 51 52 50 50 53 54 54 53 51 51 50 49 47 45 43 42 41 40 38 37 36 35 34 33 34 35 35 36 37 38 39 40 41 42 44 46 49 51 53
44 46 46 46 48 50 49 49 52 53 52 51 51 51 50 49 47 45 43 41 40 38 37 36 36 34 33 32 33 34 35 36 37 38 39 40 41 43 45 47 50 52 54
42 43 43 45 47 46 46 48 49 51 50 49 50 50 49 49 47 44 42 40 39 38 36 35 35 34 33 32 33 34 35 36 37 37 39 40 42 44 46 48 50 52 53
40 41 41 44 44 42 43 45 47 47 48 47 48 49 48 46 44 42 41 40 39 36 35 34 34 33 32 32 32 32 34 35 36 37 39 41 43 45 47 48 50 51 52
38 39 40 43 42 40 41 43 44 44 44 45 45 46 46 46 44 42 41 39 36 35 34 34 33 32 31 31 31 32 33 34 35 37 39 42 44 45 47 48 50 51 51
36 38 39 40 42 41 40 40 43 43 43 43 43 44 44 44 44 41 38 36 35 35 35 33 31 30 31 31 32 32 33 34 36 38 40 42 44 45 47 48 49 50 51
34 35 36 38 40 40 39 40 41 41 41 41 41 41 42 43 42 39 37 36 36 35 34 33 32 30 31 32 32 32 33 35 37 39 41 42 43 45 46 47 48 49 50
31 32 35 37 39 40 40 40 40 41 40 39 38 38 40 41 39 38 37 36 35 34 34 33 32 31 30 31 32 32 33 35 37 39 41 42 43 45 45 46 48 49 50
32 33 35 35 37 39 40 40 39 39 39 38 38 38 38 37 36 37 37 36 35 33 33 33 31 30 31 31 31 32 33 35 37 39 40 42 43 43 43 45 47 49 49
Wind_Direction
249 249 249 249 249 249 249 250 250 250 249 249 251 253 255 256 258 260 261 264 267 271 274 278 281 284 286 289 292 296 300 303 306 308 309 310 310 310 311 312 313 314 315
247 247 247 247 247 248 249 249 249 249 248 248 249 252 254 254 257 258 259 262 266 269 272 276 280 282 284 287 290 294 298 302 305 308 309 310 310 310 311 312 312 313 314
246 245 245 246 246 247 248 247 248 248 247 248 250 251 252 253 255 257 259 260 264 267 270 274 277 281 284 285 289 293 297 300 304 307 309 309 309 309 310 311 312 313 314
245 244 244 244 245 245 246 246 246 247 246 247 249 250 251 252 253 255 257 259 263 265 269 272 276 280 283 285 288 292 296 299 302 305 307 308 308 309 309 310 311 313 313
245 244 242 243 243 243 245 245 245 245 245 245 246 249 249 251 251 252 255 258 261 265 267 271 275 278 282 284 287 291 295 298 301 304 305 306 307 308 309 310 311 312 313
244 244 242 241 241 241 243 244 243 243 243 244 245 246 248 249 249 250 253 256 260 264 266 270 274 277 281 284 286 290 294 298 300 301 303 305 306 307 309 310 311 312 313
243 243 242 240 239 240 240 242 241 240 241 242 242 243 246 247 246 248 252 254 257 262 266 269 272 276 280 283 286 290 293 297 299 300 302 304 305 307 308 309 310 312 313
241 240 240 239 238 237 238 239 240 239 240 240 240 241 243 244 245 247 250 254 257 260 265 268 271 274 278 282 285 289 293 296 298 299 300 303 305 307 308 309 310 312 313
239 238 238 237 235 235 236 236 237 236 238 238 238 240 242 243 245 248 250 252 256 259 263 267 271 273 277 281 285 289 292 295 297 298 300 302 304 306 307 309 310 312 313
237 236 235 235 234 234 233 234 235 234 234 235 236 238 239 243 245 247 248 251 254 259 262 266 270 272 276 280 284 288 291 293 296 298 300 302 304 306 307 309 310 312 313
236 235 234 234 233 231 231 231 232 232 232 233 235 237 238 241 244 245 246 249 252 257 262 266 270 273 277 279 284 288 290 292 295 298 300 302 304 306 307 308 310 313 314
234 235 233 232 231 230 229 229 231 230 231 232 233 234 236 239 243 245 246 248 253 256 259 265 269 273 276 278 282 287 289 292 295 298 300 302 304 305 307 309 311 313 314
233 233 232 231 230 229 228 229 229 228 229 230 231 232 234 236 239 243 246 248 252 255 259 263 269 272 274 278 281 285 288 292 295 298 300 302 303 305 307 309 311 313 315
230 230 231 230 229 228 227 228 227 226 228 229 230 231 232 235 238 242 246 248 251 254 258 262 267 270 274 277 281 284 287 290 294 297 299 302 303 305 307 309 312 313 315
228 228 228 228 227 226 226 227 227 225 227 228 228 231 232 235 238 241 244 246 250 254 257 261 265 268 273 276 280 283 286 290 294 297 299 302 304 305 307 310 312 314 316
227 227 228 228 227 225 224 226 225 225 227 227 227 231 233 235 237 240 243 246 249 252 254 258 263 267 271 276 279 282 286 289 294 296 299 301 303 306 309 311 313 315 316
228 226 226 226 225 223 223 225 225 225 226 227 229 230 232 234 235 239 241 245 246 250 254 258 262 265 270 274 278 281 285 290 293 296 298 300 303 306 309 312 314 315 316
228 226 226 225 223 221 222 224 223 224 226 227 228 229 231 233 235 238 242 244 246 250 254 257 260 264 268 273 278 283 287 291 294 297 299 301 304 306 309 312 314 316 317
226 224 224 222 219 220 222 223 223 224 224 226 228 229 231 233 235 239 241 243 245 248 252 255 259 263 268 272 277 283 287 291 295 298 300 303 304 307 310 313 314 316 317
224 224 224 221 218 220 221 221 222 222 222 225 227 228 231 233 235 237 239 241 244 247 250 254 259 263 267 271 276 282 287 291 294 298 301 303 305 308 311 313 315 317 318
223 224 223 220 220 221 219 219 220 221 223 225 227 229 231 232 233 235 238 241 243 246 250 254 258 263 268 272 277 282 287 291 295 299 302 304 306 309 312 314 316 317 318
225 226 223 220 220 219 216 217 218 221 225 225 226 228 230 231 232 235 237 239 242 245 250 254 258 263 267 271 276 282 287 291 294 299 302 305 308 310 313 315 316 318 319
225 223 222 221 218 215 215 216 218 221 224 224 225 227 228 230 231 231 234 236 241 244 249 254 258 262 266 270 277 282 286 289 294 298 302 306 309 311 313 315 317 318 320
221 220 221 220 216 216 217 217 218 220 221 223 224 225 227 227 229 230 234 237 239 243 248 253 257 261 265 270 276 281 285 289 293 298 303 307 310 312 313 315 318 320 321
221 220 219 219 218 217 218 219 220 221 221 221 222 223 224 226 229 230 233 236 238 242 247 251 256 260 266 272 277 281 287 292 296 300 305 308 310 312 314 316 319 321 322
224 222 218 218 217 217 220 221 221 221 221 221 221 221 221 224 226 229 231 235 239 243 248 252 255 261 268 274 277 281 287 293 298 302 305 308 311 313 316 318 320 321 323
Height
5766 5770 5774 5778 5781 5784 5787 5790 5793 5796 5798 5801 5804 5807 5808 5810 5813 5814 5816 5817 5817 5818 5818 5818 5818 5818 5817 5816 5815 5814 5812 5811 5808 5805 5802 5799 5796 5793 5789 5785 5781 5777 5773
5754 5758 5763 5767 5771 5774 5777 5781 5784 5787 5790 5793 5796 5799 5801 5803 5805 5808 5809 5810 5811 5812 5812 5813 5813 5813 5812 5811 5810 5809 5807 5805 5803 5800 5797 5793 5790 5786 5783 5779 5775 5771 5766
5739 5745 5750 5755 5759 5763 5767 5770 5774 5778 5781 5785 5788 5791 5794 5796 5798 5801 5802 5804 5805 5806 5806 5807 5807 5807 5806 5806 5805 5803 5801 5799 5797 5794 5791 5787 5784 5780 5776 5773 5768 5764 5759
5724 5729 5736 5742 5747 5751 5756 5760 5764 5768 5772 5775 5779 5782 5785 5788 5791 5793 5795 5797 5798 5799 5800 5801 5801 5801 5800 5800 5799 5797 5795 5793 5791 5788 5785 5781 5777 5774 5770 5766 5761 5757 5752
5707 5713 5720 5727 5732 5738 5743 5748 5753 5757 5761 5766 5769 5773 5776 5779 5782 5785 5788 5790 5791 5793 5794 5794 5795 5795 5794 5793 5792 5791 5789 5787 5784 5781 5778 5775 5771 5767 5763 5759 5754 5750 5745
5689 5696 5703 5710 5717 5723 5729 5734 5741 5746 5751 5755 5759 5763 5767 5771 5774 5777 5780 5782 5784 5786 5787 5787 5788 5788 5788 5787 5786 5785 5783 5780 5778 5775 5771 5768 5764 5760 5756 5752 5747 5742 5737
5670 5678 5686 5693 5700 5708 5715 5721 5727 5733 5739 5744 5748 5753 5758 5761 5765 5769 5772 5775 5777 5778 5780 5781 5781 5781 5781 5780 5779 5778 5776 5774 5771 5768 5765 5761 5757 5753 5749 5744 5740 5734 5729
5652 5660 5667 5676 5684 5692 5699 5706 5713 5720 5727 5733 5738 5743 5748 5752 5756 5760 5764 5767 5769 5771 5772 5773 5774 5774 5774 5773 5772 5771 5769 5767 5764 5761 5757 5754 5750 5746 5742 5737 5732 5727 5721
5636 5643 5651 5659 5668 5676 5685 5692 5700 5707 5715 5721 5727 5733 5738 5743 5748 5752 5756 5759 5762 5763 5765 5766 5766 5766 5767 5766 5765 5763 5761 5759 5756 5753 5750 5747 5743 5738 5734 5729 5724 5718 5713
5620 5627 5636 5644 5652 5661 5670 5678 5686 5694 5701 5708 5715 5722 5729 5735 5740 5744 5748 5751 5753 5755 5757 5758 5759 5759 5759 5758 5757 5756 5754 5752 5749 5746 5743 5739 5735 5731 5726 5721 5716 5710 5704
5606 5613 5621 5629 5637 5646 5655 5664 5672 5680 5689 5697 5705 5711 5718 5725 5730 5735 5739 5742 5745 5747 5749 5750 5751 5751 5751 5751 5750 5748 5746 5744 5741 5738 5735 5732 5727 5723 5718 5713 5708 5702 5696
5592 5600 5607 5615 5624 5633 5642 5651 5660 5668 5677 5686 5694 5701 5708 5714 5720 5726 5730 5733 5736 5738 5740 5742 5742 5743 5743 5743 5742 5740 5739 5736 5734 5731 5728 5724 5720 5715 5710 5705 5699 5694 5687
5578 5587 5594 5602 5611 5620 5629 5639 5647 5656 5665 5674 5682 5690 5698 5704 5710 5716 5720 5723 5727 5729 5731 5733 5734 5735 5735 5735 5734 5732 5731 5729 5726 5723 5720 5716 5712 5707 5702 5697 5691 5685 5679
5566 5574 5582 5590 5598 5608 5617 5626 5635 5645 5653 5663 5671 5679 5687 5693 5700 5706 5710 5714 5718 5720 5723 5725 5726 5726 5726 5726 5725 5724 5723 5721 5718 5715 5712 5708 5704 5699 5694 5689 5683 5676 5670
5554 5562 5571 5578 5587 5596 5605 5614 5623 5633 5642 5652 5660 5668 5676 5682 5689 5695 5700 5705 5709 5712 5715 5717 5718 5718 5718 5718 5717 5716 5715 5713 5710 5707 5704 5700 5696 5691 5686 5680 5674 5667 5661
5543 5551 5560 5567 5575 5584 5594 5603 5612 5623 5632 5641 5649 5658 5665 5673 5679 5685 5690 5695 5699 5703 5706 5708 5709 5710 5710 5710 5709 5708 5707 5705 5702 5699 5696 5692 5688 5683 5678 5672 5665 5658 5651
5533 5540 5549 5557 5565 5574 5583 5592 5602 5612 5621 5631 5639 5648 5655 5663 5670 5675 5680 5685 5690 5694 5696 5699 5700 5701 5701 5701 5701 5700 5699 5697 5694 5691 5688 5684 5679 5675 5669 5663 5656 5649 5642
5523 5531 5539 5547 5556 5565 5574 5583 5593 5602 5612 5621 5630 5638 5645 5653 5659 5665 5671 5676 5681 5684 5687 5690 5691 5693 5693 5693 5693 5692 5691 5688 5686 5683 5679 5675 5671 5666 5660 5654 5647 5640 5632
5515 5523 5530 5538 5547 5556 5566 5575 5584 5593 5602 5611 5620 5629 5636 5643 5650 5656 5662 5667 5672 5675 5678 5681 5683 5684 5685 5685 5685 5684 5682 5680 5678 5675 5671 5667 5663 5657 5651 5645 5638 5630 5622
5509 5516 5523 5531 5540 5549 5557 5566 5575 5584 5593 5602 5610 5619 5627 5634 5641 5647 5653 5659 5663 5666 5669 5672 5675 5676 5677 5677 5677 5676 5675 5672 5670 5667 5663 5659 5654 5648 5643 5636 5629 5621 5612
5502 5509 5516 5524 5533 5541 5549 5557 5566 5575 5584 5592 5601 5609 5617 5625 5632 5638 5645 5650 5654 5658 5661 5664 5666 5668 5669 5669 5669 5669 5667 5665 5662 5658 5654 5650 5645 5640 5633 5626 5619 5611 5603
5497 5503 5510 5518 5526 5534 5542 5550 5559 5567 5575 5584 5592 5600 5608 5616 5623 5630 5636 5641 5646 5650 5653 5656 5658 5660 5661 5661 5661 5660 5659 5657 5654 5652 5646 5641 5636 5630 5624 5617 5609 5601 5593
5492 5498 5505 5512 5520 5527 5535 5544 5552 5560 5568 5576 5584 5592 5600 5608 5615 5621 5627 5632 5637 5641 5645 5648 5650 5652 5653 5653 5653 5652 5650 5648 5646 5642 5638 5633 5627 5621 5614 5607 5600 5592 5584
5487 5494 5500 5506 5513 5521 5529 5537 5545 5553 5561 5569 5576 5584 5592 5600 5607 5613 5618 5624 5629 5633 5637 5640 5642 5644 5645 5645 5644 5644 5642 5640 5637 5634 5629 5625 5619 5612 5605 5598 5591 5583 5575
5483 5488 5494 5501 5508 5515 5522 5530 5538 5546 5553 5561 5569 5576 5584 5592 5598 5605 5611 5616 5621 5625 5628 5631 5634 5635 5636 5637 5637 5636 5634 5632 5629 5625 5621 5616 5610 5604 5597 5589 5582 5574 5566
5478 5483 5489 5496 5502 5509 5517 5524 5532 5539 5546 5554 5562 5569 5577 5584 5590 5596 5602 5608 5613 5618 5621 5624 5626 5628 5628 5629 5628 5627 5626 5624 5620 5617 5612 5608 5602 5596 5590 5582 5573 5566 5558